Time,TemperatureF,DewpointF,PressureIn,WindDirection,WindDirectionDegrees,WindSpeedMPH,WindSpeedGustMPH,Humidity,HourlyPrecipIn,Conditions,Clouds,dailyrainin,SoftwareType,DateUTC
2013-02-11 00:00:00,45.0,38.0,-100.00,WNW,288,1.0,-999.0,74,0.00,,,0.57,,2013-02-11 06:00:00,
2013-02-11 00:32:00,45.0,38.0,-100.00,WNW,288,1.0,-999.0,74,0.00,,,0.57,,2013-02-11 06:32:00,
2013-02-11 00:42:00,45.0,38.0,-100.00,WNW,288,1.0,-999.0,74,0.00,,,0.57,,2013-02-11 06:42:00,
2013-02-11 00:52:00,45.0,38.0,-100.00,WNW,288,1.0,-999.0,74,0.00,,,0.57,,2013-02-11 06:52:00,
2013-02-11 02:00:00,49.0,35.0,-100.00,West,267,0.0,-999.0,58,0.00,,,0.57,,2013-02-11 08:00:00,
2013-02-11 02:32:00,49.0,35.0,-100.00,West,267,0.0,-999.0,58,0.00,,,0.57,,2013-02-11 08:32:00,
2013-02-11 02:42:00,49.0,35.0,-100.00,West,267,0.0,-999.0,58,0.00,,,0.57,,2013-02-11 08:42:00,
2013-02-11 02:52:00,49.0,35.0,-100.00,West,267,0.0,-999.0,58,0.00,,,0.57,,2013-02-11 08:52:00,
2013-02-11 03:00:00,48.0,34.0,-100.00,SE,129,1.0,-999.0,59,0.00,,,0.57,,2013-02-11 09:00:00,
2013-02-11 03:32:00,48.0,34.0,-100.00,SE,129,1.0,-999.0,59,0.00,,,0.57,,2013-02-11 09:32:00,
2013-02-11 03:42:00,48.0,34.0,-100.00,SE,129,1.0,-999.0,59,0.00,,,0.57,,2013-02-11 09:42:00,
2013-02-11 03:52:00,48.0,34.0,-100.00,SE,129,1.0,-999.0,59,0.00,,,0.57,,2013-02-11 09:52:00,
2013-02-11 05:00:00,47.0,30.0,-100.00,WNW,283,2.0,-999.0,52,0.00,,,0.47,,2013-02-11 11:00:00,
2013-02-11 05:32:00,47.0,30.0,-100.00,WNW,283,2.0,-999.0,52,0.00,,,0.47,,2013-02-11 11:32:00,
2013-02-11 05:42:00,47.0,30.0,-100.00,WNW,283,2.0,-999.0,52,0.00,,,0.47,,2013-02-11 11:42:00,
2013-02-11 05:52:00,47.0,30.0,-100.00,WNW,283,2.0,-999.0,52,0.00,,,0.47,,2013-02-11 11:52:00,
2013-02-11 06:00:00,46.0,33.0,-100.00,WNW,294,3.0,-999.0,59,0.00,,,0.04,,2013-02-11 12:00:00,
2013-02-11 06:32:00,46.0,33.0,-100.00,WNW,294,3.0,-999.0,59,0.00,,,0.04,,2013-02-11 12:32:00,
2013-02-11 06:42:00,46.0,33.0,-100.00,WNW,294,3.0,-999.0,59,0.00,,,0.04,,2013-02-11 12:42:00,
2013-02-11 06:52:00,46.0,33.0,-100.00,WNW,294,3.0,-999.0,59,0.00,,,0.04,,2013-02-11 12:52:00,
2013-02-11 07:00:00,46.0,31.0,-100.00,West,280,1.0,-999.0,56,0.00,,,0.01,,2013-02-11 13:00:00,
2013-02-11 07:32:00,46.0,31.0,-100.00,West,280,1.0,-999.0,56,0.00,,,0.01,,2013-02-11 13:32:00,
2013-02-11 07:42:00,46.0,31.0,-100.00,West,280,1.0,-999.0,56,0.00,,,0.01,,2013-02-11 13:42:00,
2013-02-11 07:52:00,46.0,31.0,-100.00,West,280,1.0,-999.0,56,0.00,,,0.01,,2013-02-11 13:52:00,
2013-02-11 08:00:00,44.0,30.0,-100.00,ESE,122,1.0,-999.0,58,0.00,,,0.00,,2013-02-11 14:00:00,
2013-02-11 08:33:00,44.0,30.0,-100.00,ESE,122,1.0,-999.0,58,0.00,,,0.00,,2013-02-11 14:33:00,
2013-02-11 08:42:00,44.0,30.0,-100.00,ESE,122,1.0,-999.0,58,0.00,,,0.00,,2013-02-11 14:42:00,
2013-02-11 08:53:00,44.0,30.0,-100.00,ESE,122,1.0,-999.0,58,0.00,,,0.00,,2013-02-11 14:53:00,
2013-02-11 09:00:00,44.0,34.0,-100.00,SSE,151,1.0,-999.0,67,0.00,,,0.00,,2013-02-11 15:00:00,
2013-02-11 09:32:00,44.0,34.0,-100.00,SSE,151,1.0,-999.0,67,0.00,,,0.00,,2013-02-11 15:32:00,
2013-02-11 09:42:00,44.0,34.0,-100.00,SSE,151,1.0,-999.0,67,0.00,,,0.00,,2013-02-11 15:42:00,
2013-02-11 09:52:00,44.0,34.0,-100.00,SSE,151,1.0,-999.0,67,0.00,,,0.00,,2013-02-11 15:52:00,
2013-02-11 10:00:00,47.0,32.0,-100.00,WNW,294,1.0,-999.0,56,0.00,,,0.00,,2013-02-11 16:00:00,
2013-02-11 10:32:00,47.0,32.0,-100.00,WNW,294,1.0,-999.0,56,0.00,,,0.00,,2013-02-11 16:32:00,
2013-02-11 10:42:00,47.0,32.0,-100.00,WNW,294,1.0,-999.0,56,0.00,,,0.00,,2013-02-11 16:42:00,
2013-02-11 10:52:00,47.0,32.0,-100.00,WNW,294,1.0,-999.0,56,0.00,,,0.00,,2013-02-11 16:52:00,
2013-02-11 11:00:00,48.0,30.0,-100.00,WNW,301,3.0,-999.0,49,0.00,,,0.00,,2013-02-11 17:00:00,
2013-02-11 11:32:00,48.0,30.0,-100.00,WNW,301,3.0,-999.0,49,0.00,,,0.00,,2013-02-11 17:32:00,
2013-02-11 11:42:00,48.0,30.0,-100.00,WNW,301,3.0,-999.0,49,0.00,,,0.00,,2013-02-11 17:42:00,
2013-02-11 11:53:00,48.0,30.0,-100.00,WNW,301,3.0,-999.0,49,0.00,,,0.00,,2013-02-11 17:53:00,
2013-02-11 12:00:00,50.0,29.0,-100.00,WNW,298,3.0,-999.0,44,0.00,,,0.00,,2013-02-11 18:00:00,
2013-02-11 12:32:00,50.0,29.0,-100.00,WNW,298,3.0,-999.0,44,0.00,,,0.00,,2013-02-11 18:32:00,
2013-02-11 12:42:00,50.0,29.0,-100.00,WNW,298,3.0,-999.0,44,0.00,,,0.00,,2013-02-11 18:42:00,
2013-02-11 12:53:00,50.0,29.0,-100.00,WNW,298,3.0,-999.0,44,0.00,,,0.00,,2013-02-11 18:53:00,
2013-02-11 14:00:00,55.0,32.0,-100.00,NW,316,1.0,-999.0,42,0.00,,,0.00,,2013-02-11 20:00:00,
2013-02-11 14:32:00,55.0,32.0,-100.00,NW,316,1.0,-999.0,42,0.00,,,0.00,,2013-02-11 20:32:00,
2013-02-11 14:42:00,55.0,32.0,-100.00,NW,316,1.0,-999.0,42,0.00,,,0.00,,2013-02-11 20:42:00,
2013-02-11 14:52:00,55.0,32.0,-100.00,NW,316,1.0,-999.0,42,0.00,,,0.00,,2013-02-11 20:52:00,
2013-02-11 15:00:00,56.0,28.0,-100.00,East,79,0.0,-999.0,35,0.00,,,0.00,,2013-02-11 21:00:00,
2013-02-11 15:32:00,56.0,28.0,-100.00,East,79,0.0,-999.0,35,0.00,,,0.00,,2013-02-11 21:32:00,
2013-02-11 15:42:00,56.0,28.0,-100.00,East,79,0.0,-999.0,35,0.00,,,0.00,,2013-02-11 21:42:00,
2013-02-11 15:52:00,56.0,28.0,-100.00,East,79,0.0,-999.0,35,0.00,,,0.00,,2013-02-11 21:52:00,
2013-02-11 16:00:00,57.0,26.0,-100.00,NE,51,0.0,-999.0,30,0.00,,,0.00,,2013-02-11 22:00:00,
2013-02-11 16:32:00,57.0,26.0,-100.00,NE,51,0.0,-999.0,30,0.00,,,0.00,,2013-02-11 22:32:00,
2013-02-11 16:42:00,57.0,26.0,-100.00,NE,51,0.0,-999.0,30,0.00,,,0.00,,2013-02-11 22:42:00,
2013-02-11 16:52:00,57.0,26.0,-100.00,NE,51,0.0,-999.0,30,0.00,,,0.00,,2013-02-11 22:52:00,
2013-02-11 17:00:00,57.0,29.0,-100.00,South,185,0.0,-999.0,35,0.00,,,0.00,,2013-02-11 23:00:00,
2013-02-11 17:32:00,57.0,29.0,-100.00,South,185,0.0,-999.0,35,0.00,,,0.00,,2013-02-11 23:32:00,
2013-02-11 17:42:00,57.0,29.0,-100.00,South,185,0.0,-999.0,35,0.00,,,0.00,,2013-02-11 23:42:00,
2013-02-11 17:52:00,57.0,29.0,-100.00,South,185,0.0,-999.0,35,0.00,,,0.00,,2013-02-11 23:52:00,
2013-02-11 18:00:00,53.0,32.0,-100.00,South,182,1.0,-999.0,45,0.00,,,0.00,,2013-02-12 00:00:00,
2013-02-11 18:32:00,53.0,32.0,-100.00,South,182,1.0,-999.0,45,0.00,,,0.00,,2013-02-12 00:32:00,
2013-02-11 18:42:00,53.0,32.0,-100.00,South,182,1.0,-999.0,45,0.00,,,0.00,,2013-02-12 00:42:00,
2013-02-11 18:52:00,53.0,32.0,-100.00,South,182,1.0,-999.0,45,0.00,,,0.00,,2013-02-12 00:52:00,
2013-02-11 19:00:00,49.0,33.0,-100.00,SE,142,0.0,-999.0,54,0.00,,,0.00,,2013-02-12 01:00:00,
2013-02-11 19:32:00,49.0,33.0,-100.00,SE,142,0.0,-999.0,54,0.00,,,0.00,,2013-02-12 01:32:00,
2013-02-11 19:42:00,49.0,33.0,-100.00,SE,142,0.0,-999.0,54,0.00,,,0.00,,2013-02-12 01:42:00,
2013-02-11 19:52:00,49.0,33.0,-100.00,SE,142,0.0,-999.0,54,0.00,,,0.00,,2013-02-12 01:52:00,
2013-02-11 20:00:00,47.0,36.0,-100.00,SE,129,1.0,-999.0,66,0.00,,,0.00,,2013-02-12 02:00:00,
2013-02-11 20:32:00,47.0,36.0,-100.00,SE,129,1.0,-999.0,66,0.00,,,0.00,,2013-02-12 02:32:00,
2013-02-11 20:42:00,47.0,36.0,-100.00,SE,129,1.0,-999.0,66,0.00,,,0.00,,2013-02-12 02:42:00,
2013-02-11 20:53:00,47.0,36.0,-100.00,SE,129,1.0,-999.0,66,0.00,,,0.00,,2013-02-12 02:53:00,
2013-02-11 21:00:00,45.0,36.0,-100.00,South,183,0.0,-999.0,71,0.00,,,0.00,,2013-02-12 03:00:00,
2013-02-11 21:32:00,45.0,36.0,-100.00,South,183,0.0,-999.0,71,0.00,,,0.00,,2013-02-12 03:32:00,
2013-02-11 21:42:00,45.0,36.0,-100.00,South,183,0.0,-999.0,71,0.00,,,0.00,,2013-02-12 03:42:00,
2013-02-11 21:52:00,45.0,36.0,-100.00,South,183,0.0,-999.0,71,0.00,,,0.00,,2013-02-12 03:52:00,
2013-02-11 22:00:00,44.0,38.0,-100.00,NNW,341,0.0,-999.0,79,0.00,,,0.00,,2013-02-12 04:00:00,
2013-02-11 22:31:00,44.0,38.0,-100.00,NNW,341,0.0,-999.0,79,0.00,,,0.00,,2013-02-12 04:31:00,
2013-02-11 22:42:00,44.0,38.0,-100.00,NNW,341,0.0,-999.0,79,0.00,,,0.00,,2013-02-12 04:42:00,
2013-02-11 22:52:00,44.0,38.0,-100.00,NNW,341,0.0,-999.0,79,0.00,,,0.00,,2013-02-12 04:52:00,
2013-02-11 23:00:00,40.0,36.0,-100.00,SE,141,1.0,-999.0,86,0.00,,,0.00,,2013-02-12 05:00:00,
2013-02-11 23:32:00,40.0,36.0,-100.00,SE,141,1.0,-999.0,86,0.00,,,0.00,,2013-02-12 05:32:00,
2013-02-11 23:42:00,40.0,36.0,-100.00,SE,141,1.0,-999.0,86,0.00,,,0.00,,2013-02-12 05:42:00,
2013-02-11 23:52:00,40.0,36.0,-100.00,SE,141,1.0,-999.0,86,0.00,,,0.00,,2013-02-12 05:52:00,